Location: ?????? ??????
(44.3742°N, 135.2221°E)
Time: 03:20:15
(UTC+00:00)

Lacrosse 5 rocket - Pass Details

Date: 19 May 2025
Orbit: 419 x 516 km, 57.0° (Epoch: 15 June)

Event Time Altitude Azimuth Distance (km) Brightness Sun altitude
Rises 13:33:53 0° 300° (WNW) 2,453 5.4 -23.1°
Reaches altitude 10° 13:36:25 10° 282° (WNW) 1,557 4.0 -23.2°
Enters shadow 13:37:37 16° 265° (W) 1,238 3.2 -23.3°
